Flag for USA

Past Weather in 32°48'25.4"N, 97°18'36.4"W, USA — Yesterday and Last 2 Weeks

Now
68 °F

Clear.


Feels Like: 68 °F
Forecast: 87 / 63 °F
Wind: 5 mph from Northeast

Location: Meacham International Airport

Current Time: May 30, 2020 at 3:42:02 am

Latest Report: May 30, 2020 at 2:53 am


Visibility: 10 mi

Pressure: 30.10 "Hg

Humidity: 76%

Dew Point: 60 °F

Location of 32°48'25.4"N, 97°18'36.4"WLocation

Past Weather in 32°48'25.4"N, 97°18'36.4"W — Graph

°F

32°48'25.4"N, 97°18'36.4"W Temperature Yesterday

Maximum temperature yesterday: 86 °F (at 2:53 pm)
Minimum temperature yesterday: 64 °F (at 5:53 am)
Average temperature yesterday: 76 °F

High & Low Weather Summary for the Past Weeks

 TemperatureHumidityPressure
High93 °F (May 19, 3:53 pm)100% (May 15, 11:53 pm)30.15 "Hg (May 15, 11:53 pm)
Low59 °F (May 27, 6:53 am)31% (May 27, 3:53 pm)29.66 "Hg (May 15, 5:53 pm)
Average73 °F77%29.83 "Hg
* Reported May 15 1:53 am — May 30 1:53 am, 32°48'25.4"N, 97°18'36.4"W. Weather by CustomWeather, © 2020

Note: Actual official high and low records may vary slightly from our data, if they occured in-between our weather recording intervals... More about our weather records

32°48'25.4"N, 97°18'36.4"W Weather History for the Previous 24 Hours

Scroll right to see more
 ConditionsComfort  
Time TempWeatherWind HumidityBarometerVisibility
1:53 am
Sat, May 30
69 °FClear.No wind79%30.10 "Hg10 mi
12:53 am71 °FClear.3 mph66%30.10 "Hg10 mi
11:53 pm
Fri, May 29
72 °FClear.3 mph61%30.09 "Hg10 mi
10:53 pm74 °FClear.6 mph57%30.10 "Hg10 mi
9:53 pm76 °FClear.5 mph52%30.09 "Hg10 mi
8:53 pm77 °FClear.6 mph50%30.08 "Hg10 mi
7:53 pm82 °FSunny.10 mph43%30.07 "Hg10 mi
6:53 pm84 °FSunny.9 mph40%30.08 "Hg10 mi
5:53 pm85 °FSunny.13 mph40%30.08 "Hg10 mi
4:53 pm86 °FSunny.10 mph37%30.09 "Hg10 mi
3:53 pm86 °FSunny.10 mph36%30.11 "Hg10 mi
2:53 pm86 °FSunny.8 mph36%30.10 "Hg10 mi
1:53 pm84 °FSunny.13 mph40%30.11 "Hg10 mi
12:53 pm83 °FSunny.15 mph41%30.11 "Hg10 mi
11:53 am82 °FSunny.10 mph48%30.13 "Hg10 mi
10:53 am78 °FSunny.9 mph56%30.13 "Hg10 mi
9:53 am75 °FSunny.10 mph64%30.15 "Hg10 mi
8:53 am71 °FSunny.9 mph76%30.14 "Hg10 mi
7:53 am67 °FSunny.9 mph87%30.11 "Hg10 mi
6:53 am64 °FSunny.5 mph94%30.10 "Hg10 mi
5:53 am64 °FClear.8 mph90%30.08 "Hg10 mi
4:53 am66 °FClear.6 mph87%30.06 "Hg10 mi
3:53 am66 °FClear.5 mph87%30.04 "Hg10 mi
Weather by CustomWeather, © 2020

See weather overview

Advertising